Vertical_Velocity
-3 4 -4 -6 7 -3 -5 -6 4 -4 1 8 3 1 1 6 11 11 -2 2 -1 -7 6 3 5 -0 6 0 1 1 -6 -0 -1 -1 -1 2 -1 1 1 -2 0 0 1 1 -1
-1 0 2 -2 1 -0 -6 -6 -3 1 -1 -4 1 1 7 15 6 -2 2 4 4 -1 6 1 -2 0 6 -1 1 -5 -3 -2 -1 -0 -0 1 -1 -1 -1 0 -1 -0 1 2 0
-3 3 1 -4 4 1 -6 -7 1 -1 -5 -2 -1 -1 7 -0 6 -9 4 -3 4 -10 5 -3 -0 3 -1 2 1 1 -2 0 0 -1 1 -0 -0 1 -2 -0 -3 -5 -3 -1 -2
-1 -2 1 0 -8 -3 -5 -9 -8 2 1 -0 -6 -1 -2 -3 -3 -1 2 -3 9 -8 3 -1 1 3 -2 -2 1 -6 0 1 0 1 1 -0 1 0 -0 0 2 0 2 -1 -2
-1 -2 -0 5 3 -3 6 -2 -18 -9 -0 8 -2 1 -2 -7 -4 5 6 -10 -9 3 2 -4 -2 2 -2 -2 -1 -2 0 -0 1 2 -1 1 0 0 -0 1 1 1 1 -2 -0
-1 -2 1 2 3 -2 -0 10 -0 -11 12 -5 2 -2 3 -3 -6 -2 -1 1 9 4 5 -9 1 9 -5 -1 -3 0 -0 1 1 2 -1 -2 -0 -1 -1 0 1 0 -0 0 -2
-2 -0 0 -1 3 1 -0 -3 5 5 4 14 -9 2 3 -0 -3 -4 2 7 6 -1 -2 2 1 -0 2 0 2 0 -4 -2 -3 -1 0 0 -4 -1 0 -1 1 -0 1 2 3
-3 -1 3 -2 -0 -1 3 0 1 -1 7 -7 -4 -9 6 13 2 1 1 -4 3 -2 6 4 -1 1 3 5 -2 -4 -7 -3 -2 -1 0 -7 -6 -1 0 -1 -1 1 0 -2 -1
-2 -1 -0 0 -3 -2 2 -0 -0 1 10 -4 4 -15 -7 15 11 4 1 3 4 0 -3 4 1 -0 1 -4 -5 -4 -2 -0 -1 0 -0 -4 -2 -2 1 1 -0 -0 -1 0 1
-2 -3 -1 -0 2 -1 -5 -2 6 -3 -5 9 -5 -24 -18 -3 6 8 4 5 1 -6 4 -0 -1 -2 -3 -4 -6 -2 -1 -0 -1 -2 -1 -0 -3 -2 1 1 -1 -1 -1 -0 -1
-1 -2 -2 -1 -1 3 1 -1 -4 -10 -9 0 9 -22 1 5 9 7 5 -4 3 3 -2 0 -11 -1 1 1 -1 -2 -2 -1 -0 -0 -0 -0 -1 -3 -3 1 -1 -3 -1 -3 -5
-1 -3 -4 -2 -2 -2 4 -14 1 0 -4 4 8 10 2 27 -11 -2 6 -4 -5 -1 -1 -11 -1 0 0 -0 -2 -1 -1 0 -1 -0 -2 -1 -5 -2 -0 -2 -0 -1 -2 -1 1
-1 0 -2 -2 -2 -2 -9 -3 1 1 -3 -3 -1 -2 2 3 0 4 5 1 -3 -3 -0 -4 -1 0 -2 -0 -3 0 -2 0 -1 -1 -0 -0 -6 -2 -1 -0 -0 1 -0 -0 -1
2 -0 -1 -0 -2 -2 -4 -3 -2 -3 -10 -13 -11 2 -5 3 -1 4 3 -2 -3 -2 -0 -0 -1 -0 -1 -1 -1 -2 0 -0 -1 -4 -4 -3 -9 -2 -1 -2 -0 0 -0 0 1
-1 0 1 4 -2 -0 1 -1 -3 -3 -13 -23 -11 -2 6 -8 3 -6 1 -1 0 1 -8 -2 -1 -1 -3 2 -0 -2 -1 -0 -0 -1 -4 -6 -9 -14 -0 -1 -1 -1 -0 -0 -0
-2 -2 -1 1 -1 -1 -1 1 -0 -25 -12 -11 -1 -4 -5 -4 -1 1 -2 -5 1 -3 -3 0 1 -2 1 1 0 -1 -3 -3 -1 -2 -6 -0 -7 -10 -2 -1 -2 -1 0 -0 -1
-1 1 -2 -1 -2 1 -0 -0 -17 -13 -11 -8 -3 -1 -0 -1 -4 -3 -3 -5 -3 -6 -4 -3 -1 -1 -1 -3 -2 -4 -5 -5 -10 -9 -7 -0 -3 -15 -2 -1 -0 -0 -1 1 0
-0 -1 -2 -0 -3 -2 3 -12 -14 -5 -1 -2 0 -1 -2 0 -1 -0 -1 -2 -2 -2 -2 -3 -13 -1 -3 0 -1 1 -4 -8 -5 -3 -5 -1 -5 -19 -2 -0 -0 0 0 -1 -1
0 2 -3 -1 -1 -2 -4 -8 -8 -2 -0 -0 -3 -2 -1 -1 -2 -3 -0 -1 -0 -0 -6 -2 -2 -2 -1 0 -4 0 -3 -2 -6 -1 -5 -4 -10 -8 -1 -1 -1 -0 -0 -0 -0
0 -1 -2 1 -1 -1 -13 -1 -0 1 1 1 -2 -2 0 -0 -3 -3 -0 -0 -0 0 1 -2 -5 -0 -2 -1 -1 -2 -3 -10 -5 -4 -2 -4 -2 -8 -2 -0 -0 -1 -1 -0 0
1 -1 0 -0 2 -5 -6 -1 -0 -1 2 1 0 -0 0 -0 0 0 0 -1 -0 -1 -0 -1 -8 -5 -2 -2 -4 -1 -0 -2 -6 -4 -4 -2 -12 -6 -2 -1 -0 -1 -0 0 -1
1 -6 -0 -1 -12 1 -1 -1 -0 0 -1 -1 -0 0 0 0 -0 -0 -1 0 1 1 -0 0 -2 -1 -1 0 -1 -1 -2 -3 -6 -3 -1 -4 -19 -1 -1 -1 -0 1 -0 0 0
-2 -1 0 2 -5 -1 -1 -0 1 0 0 -0 -0 0 -0 0 -1 0 -0 1 0 -1 -0 -2 -2 -3 -12 -10 -3 1 -1 -1 -1 -2 -3 -6 -16 -0 1 0 1 0 -3 1 1
-1 -7 -2 -6 0 -3 -0 0 -1 -1 0 0 -1 -0 -1 -1 -0 -1 -1 -1 1 0 1 -2 -0 -4 -9 -6 -3 1 1 0 -3 -1 -3 -6 -3 -1 -0 -1 -1 -2 -0 -2 -3
-2 -0 1 -3 -4 -0 -1 -0 -0 -0 -0 0 -0 -1 -2 -1 -0 -0 0 -1 -1 -0 -0 -3 -0 -0 -1 -1 1 -1 -1 0 0 -5 -4 -4 -2 -4 -2 -2 -3 -1 -1 0 2
-2 -0 0 -1 0 -0 -1 0 -0 -1 -1 -1 1 -0 0 -1 -6 -2 -2 -0 -4 1 -0 -0 -2 -0 -3 -1 1 0 -0 0 -0 -1 1 2 -7 -2 -7 2 -0 -0 -0 0 1
1 -1 1 1 0 -1 -3 -1 -2 -0 -1 0 -1 -0 1 -3 -1 -1 1 1 -3 -6 -0 -2 -2 -1 -3 0 -1 -2 -8 -2 -1 -0 -4 1 -17 -1 -1 -1 -1 -1 1 -1 -1
Height
1492 1489 1485 1480 1477 1473 1471 1469 1467 1466 1465 1465 1466 1466 1467 1469 1471 1472 1474 1478 1480 1484 1488 1490 1492 1495 1499 1503 1506 1508 1518 1524 1518 1518 1512 1510 1512 1515 1516 1518 1520 1521 1521 1522 1527
1495 1491 1487 1483 1479 1477 1473 1472 1470 1469 1467 1467 1466 1467 1470 1472 1473 1473 1478 1477 1480 1484 1487 1490 1491 1495 1499 1502 1506 1508 1520 1515 1513 1513 1512 1510 1511 1514 1518 1519 1520 1521 1521 1523 1528
1497 1493 1489 1486 1482 1480 1478 1475 1473 1471 1469 1468 1467 1468 1470 1472 1476 1476 1477 1480 1482 1484 1488 1490 1493 1497 1499 1502 1506 1510 1516 1512 1512 1513 1512 1512 1513 1515 1516 1520 1519 1519 1521 1525 1529
1498 1495 1492 1489 1485 1484 1481 1478 1477 1475 1473 1471 1471 1471 1473 1475 1479 1476 1479 1481 1484 1486 1489 1491 1493 1497 1499 1503 1506 1512 1513 1512 1513 1512 1513 1513 1515 1516 1518 1518 1519 1521 1523 1526 1529
1500 1497 1495 1492 1490 1487 1485 1483 1480 1478 1477 1476 1474 1474 1477 1479 1476 1476 1479 1481 1483 1487 1489 1491 1494 1496 1499 1503 1506 1511 1513 1513 1514 1513 1514 1515 1516 1518 1519 1519 1520 1522 1525 1529 1532
1502 1500 1497 1495 1492 1491 1488 1487 1484 1482 1481 1478 1476 1476 1477 1479 1477 1477 1479 1482 1485 1488 1489 1492 1496 1496 1501 1504 1507 1512 1513 1514 1515 1515 1516 1517 1518 1518 1521 1521 1522 1524 1527 1529 1531
1505 1502 1500 1497 1494 1492 1490 1488 1487 1484 1483 1481 1478 1478 1478 1480 1478 1479 1482 1484 1488 1490 1492 1495 1497 1499 1501 1505 1511 1512 1516 1515 1518 1518 1520 1519 1521 1521 1521 1523 1524 1526 1527 1529 1530
1507 1504 1502 1500 1497 1494 1492 1490 1487 1485 1484 1484 1481 1480 1479 1481 1482 1483 1485 1488 1491 1494 1496 1498 1500 1501 1503 1506 1512 1516 1521 1528 1523 1521 1523 1523 1530 1520 1521 1523 1524 1526 1527 1528 1530
1507 1506 1504 1503 1501 1497 1494 1492 1489 1487 1486 1486 1486 1484 1485 1485 1487 1487 1488 1491 1493 1496 1498 1500 1502 1505 1506 1512 1523 1526 1534 1529 1528 1526 1526 1526 1526 1522 1521 1521 1523 1524 1526 1527 1527
1508 1507 1506 1505 1502 1498 1496 1494 1491 1488 1488 1488 1490 1491 1490 1488 1488 1489 1491 1493 1494 1497 1499 1502 1505 1509 1513 1517 1536 1529 1534 1530 1530 1530 1527 1528 1527 1522 1521 1521 1521 1523 1524 1524 1524
1509 1509 1507 1506 1504 1501 1498 1496 1496 1495 1490 1495 1495 1502 1490 1491 1492 1492 1493 1496 1498 1499 1504 1505 1516 1529 1521 1519 1519 1524 1527 1531 1532 1530 1530 1529 1529 1523 1519 1521 1520 1519 1519 1520 1521
1511 1510 1509 1507 1506 1504 1502 1498 1500 1503 1498 1496 1496 1496 1496 1494 1494 1493 1496 1497 1497 1507 1507 1515 1525 1521 1520 1519 1521 1525 1530 1533 1531 1531 1531 1533 1528 1520 1518 1517 1517 1516 1515 1515 1515
1513 1512 1510 1509 1507 1507 1505 1504 1502 1501 1501 1500 1500 1500 1503 1505 1506 1502 1499 1500 1504 1513 1516 1523 1525 1520 1520 1525 1525 1536 1534 1533 1532 1534 1535 1537 1530 1522 1517 1516 1515 1513 1511 1511 1511
1514 1513 1512 1510 1511 1508 1507 1506 1505 1503 1515 1514 1505 1506 1505 1502 1504 1504 1503 1505 1509 1519 1520 1526 1525 1523 1525 1529 1531 1534 1535 1533 1535 1543 1553 1545 1558 1526 1523 1519 1516 1513 1511 1511 1511
1514 1513 1511 1510 1509 1509 1510 1507 1505 1505 1544 1518 1513 1510 1508 1507 1511 1509 1507 1506 1515 1521 1523 1534 1530 1531 1531 1535 1532 1536 1535 1536 1541 1548 1553 1550 1566 1531 1525 1518 1516 1514 1512 1512 1512
1515 1512 1509 1508 1507 1508 1507 1506 1506 1522 1546 1528 1518 1516 1511 1511 1512 1512 1511 1511 1518 1523 1525 1532 1531 1533 1534 1535 1533 1535 1538 1543 1550 1555 1574 1556 1567 1544 1533 1518 1518 1515 1514 1513 1513
1516 1512 1508 1508 1507 1505 1506 1506 1522 1543 1533 1529 1525 1520 1519 1520 1517 1517 1521 1525 1529 1535 1534 1533 1537 1536 1535 1536 1536 1538 1546 1578 1570 1582 1569 1560 1569 1537 1521 1518 1516 1514 1513 1513 1513
1515 1513 1510 1508 1509 1507 1506 1509 1538 1539 1534 1527 1525 1522 1524 1523 1522 1523 1526 1533 1530 1531 1543 1550 1558 1542 1540 1541 1541 1543 1546 1573 1564 1574 1575 1562 1561 1530 1518 1516 1516 1514 1513 1513 1514
1515 1514 1512 1510 1508 1508 1509 1530 1534 1533 1530 1529 1526 1528 1528 1525 1524 1527 1531 1534 1532 1530 1536 1541 1546 1543 1542 1542 1543 1544 1555 1554 1577 1586 1584 1568 1544 1521 1516 1515 1515 1515 1516 1515 1515
1515 1514 1513 1510 1508 1507 1512 1533 1533 1531 1529 1527 1529 1529 1530 1529 1527 1529 1531 1531 1530 1530 1529 1535 1546 1544 1543 1542 1544 1544 1550 1561 1572 1568 1570 1566 1556 1544 1527 1516 1517 1516 1516 1516 1515
1516 1515 1515 1511 1509 1509 1533 1536 1532 1531 1531 1531 1530 1529 1530 1530 1531 1533 1534 1532 1532 1532 1531 1534 1541 1548 1544 1544 1545 1550 1554 1557 1561 1568 1571 1571 1552 1526 1520 1517 1517 1517 1517 1516 1515
1517 1517 1516 1513 1514 1522 1531 1528 1530 1530 1530 1531 1531 1531 1531 1530 1530 1531 1533 1535 1533 1533 1533 1535 1542 1555 1542 1542 1543 1543 1544 1547 1561 1559 1568 1571 1552 1515 1514 1513 1514 1516 1516 1515 1514
1519 1520 1519 1514 1529 1533 1531 1530 1529 1529 1530 1530 1531 1533 1533 1533 1534 1533 1533 1533 1532 1533 1535 1535 1544 1562 1547 1547 1544 1545 1544 1544 1549 1555 1556 1562 1542 1511 1513 1513 1514 1514 1514 1513 1512
1521 1524 1521 1520 1524 1528 1531 1533 1532 1531 1531 1529 1530 1531 1531 1533 1535 1536 1537 1536 1535 1535 1535 1536 1545 1544 1549 1535 1540 1542 1540 1542 1543 1563 1548 1538 1521 1513 1514 1514 1512 1511 1511 1511 1511
1525 1528 1529 1532 1528 1528 1529 1531 1532 1532 1531 1530 1531 1529 1530 1533 1534 1535 1537 1537 1538 1539 1540 1540 1543 1547 1543 1540 1538 1535 1533 1538 1541 1531 1534 1518 1521 1512 1512 1512 1510 1510 1509 1509 1508
1528 1529 1529 1530 1529 1529 1528 1529 1530 1530 1531 1531 1532 1530 1530 1531 1530 1531 1533 1536 1535 1539 1540 1542 1545 1545 1542 1537 1539 1536 1533 1532 1527 1525 1525 1519 1509 1507 1507 1506 1507 1506 1506 1507 1507
1531 1531 1531 1532 1531 1532 1531 1528 1528 1527 1529 1528 1529 1530 1531 1529 1528 1529 1530 1529 1529 1532 1537 1541 1545 1550 1544 1540 1539 1532 1517 1516 1515 1515 1510 1513 1497 1501 1501 1502 1502 1504 1505 1506 1506